Time,TemperatureF,DewpointF,PressureIn,WindDirection,WindDirectionDegrees,WindSpeedMPH,WindSpeedGustMPH,Humidity,HourlyPrecipIn,Conditions,Clouds,dailyrainin,SoftwareType,DateUTC
2013-05-11 00:04:00,59.0,46.4,30.00,WNW,300,0.0,2.0,63,0.00,,BKN100,0.00,VWS V14.01,2013-05-11 05:04:00,
2013-05-11 00:09:00,59.0,46.8,30.01,WNW,300,3.0,3.0,64,0.00,,SCT120,0.00,VWS V14.01,2013-05-11 05:09:00,
2013-05-11 00:14:00,58.5,46.4,30.01,NW,305,3.0,5.0,64,0.00,,SCT120,0.00,VWS V14.01,2013-05-11 05:14:00,
2013-05-11 00:19:00,58.3,46.6,30.01,NW,313,5.0,5.0,65,0.00,,SCT120,0.00,VWS V14.01,2013-05-11 05:19:00,
2013-05-11 00:25:00,58.2,46.5,30.01,NW,313,6.0,7.0,65,0.00,,SCT120,0.00,VWS V14.01,2013-05-11 05:25:00,
2013-05-11 00:30:00,58.2,46.1,30.01,NW,315,5.0,11.0,64,0.00,,SCT120,0.00,VWS V14.01,2013-05-11 05:30:00,
2013-05-11 00:35:00,58.3,46.2,30.02,NW,321,7.0,10.0,64,0.00,,SCT120,0.00,VWS V14.01,2013-05-11 05:35:00,
2013-05-11 00:40:00,58.3,45.8,30.02,NNW,346,11.0,12.0,63,0.00,,SCT120,0.00,VWS V14.01,2013-05-11 05:40:00,
2013-05-11 00:45:00,58.2,45.3,30.02,NNW,328,8.0,16.0,62,0.00,,SCT120,0.00,VWS V14.01,2013-05-11 05:45:00,
2013-05-11 00:50:00,58.2,44.8,30.03,NNW,327,6.0,13.0,61,0.00,,SCT120,0.00,VWS V14.01,2013-05-11 05:50:00,
2013-05-11 00:55:00,58.1,44.7,30.03,NNW,338,9.0,13.0,61,0.00,,SCT120,0.00,VWS V14.01,2013-05-11 05:55:00,
2013-05-11 01:00:00,57.9,44.1,30.03,NNW,333,10.0,14.0,60,0.00,,SCT120,0.00,VWS V14.01,2013-05-11 06:00:00,
2013-05-11 01:05:00,57.8,43.1,30.04,NNW,345,7.0,15.0,58,0.00,,SCT120,0.00,VWS V14.01,2013-05-11 06:05:00,
2013-05-11 01:10:00,57.5,42.4,30.04,NNW,332,9.0,14.0,57,0.00,,CLR,0.00,VWS V14.01,2013-05-11 06:10:00,
2013-05-11 01:15:00,57.6,41.6,30.04,NNW,340,13.0,15.0,55,0.00,,CLR,0.00,VWS V14.01,2013-05-11 06:15:00,
2013-05-11 01:20:00,57.5,40.5,30.04,NNW,335,9.0,22.0,53,0.00,,CLR,0.00,VWS V14.01,2013-05-11 06:20:00,
2013-05-11 01:25:00,57.4,39.9,30.04,NNE,24,11.0,16.0,52,0.00,,CLR,0.00,VWS V14.01,2013-05-11 06:25:00,
2013-05-11 01:30:00,57.0,40.1,30.04,NNW,341,6.0,13.0,53,0.00,,CLR,0.00,VWS V14.01,2013-05-11 06:30:00,
2013-05-11 01:35:00,56.6,40.2,30.05,North,350,15.0,15.0,54,0.00,,CLR,0.00,VWS V14.01,2013-05-11 06:35:00,
2013-05-11 01:40:00,56.4,39.5,30.05,North,355,16.0,16.0,53,0.00,,CLR,0.00,VWS V14.01,2013-05-11 06:40:00,
2013-05-11 01:45:00,56.2,39.3,30.05,North,5,7.0,17.0,53,0.00,,CLR,0.00,VWS V14.01,2013-05-11 06:45:00,
2013-05-11 01:50:00,55.9,39.0,30.06,North,360,8.0,15.0,53,0.00,,CLR,0.00,VWS V14.01,2013-05-11 06:50:00,
2013-05-11 01:55:00,55.6,39.2,30.06,NNW,346,7.0,15.0,54,0.00,,CLR,0.00,VWS V14.01,2013-05-11 06:55:00,
2013-05-11 02:00:00,55.4,39.5,30.06,North,5,12.0,16.0,55,0.00,,CLR,0.00,VWS V14.01,2013-05-11 07:00:00,
2013-05-11 02:05:00,55.0,39.6,30.06,NNW,346,6.0,14.0,56,0.00,,CLR,0.00,VWS V14.01,2013-05-11 07:05:00,
2013-05-11 02:10:00,54.6,39.2,30.06,NNW,344,6.0,13.0,56,0.00,,CLR,0.00,VWS V14.01,2013-05-11 07:10:00,
2013-05-11 02:15:00,54.1,38.8,30.06,North,350,9.0,12.0,56,0.00,,CLR,0.00,VWS V14.01,2013-05-11 07:15:00,
2013-05-11 02:20:00,53.7,38.4,30.07,North,355,8.0,12.0,56,0.00,,CLR,0.00,VWS V14.01,2013-05-11 07:20:00,
2013-05-11 02:25:00,53.3,38.5,30.07,NNW,337,7.0,13.0,57,0.00,,CLR,0.00,VWS V14.01,2013-05-11 07:25:00,
2013-05-11 02:30:00,53.1,38.3,30.07,NNW,346,7.0,13.0,57,0.00,,CLR,0.00,VWS V14.01,2013-05-11 07:30:00,
2013-05-11 02:35:00,52.8,38.0,30.07,NNW,331,6.0,13.0,57,0.00,,CLR,0.00,VWS V14.01,2013-05-11 07:35:00,
2013-05-11 02:40:00,52.6,38.3,30.07,NNW,347,5.0,12.0,58,0.00,,CLR,0.00,VWS V14.01,2013-05-11 07:40:00,
2013-05-11 02:47:00,52.0,38.1,30.07,NNW,348,6.0,6.0,59,0.00,,CLR,0.00,VWS V14.01,2013-05-11 07:47:00,
2013-05-11 02:52:00,51.8,37.9,30.08,NNW,343,6.0,10.0,59,0.00,,CLR,0.00,VWS V14.01,2013-05-11 07:52:00,
2013-05-11 02:57:00,51.5,38.1,30.08,NNW,333,6.0,6.0,60,0.00,,CLR,0.00,VWS V14.01,2013-05-11 07:57:00,
2013-05-11 03:02:00,51.2,37.8,30.08,NNW,344,3.0,5.0,60,0.00,,CLR,0.00,VWS V14.01,2013-05-11 08:02:00,
2013-05-11 03:07:00,50.8,37.8,30.08,North,360,3.0,6.0,61,0.00,,CLR,0.00,VWS V14.01,2013-05-11 08:07:00,
2013-05-11 03:12:00,50.5,37.6,30.08,NNW,331,6.0,7.0,61,0.00,,CLR,0.00,VWS V14.01,2013-05-11 08:12:00,
2013-05-11 03:17:00,50.4,37.9,30.08,North,355,7.0,9.0,62,0.00,,CLR,0.00,VWS V14.01,2013-05-11 08:17:00,
2013-05-11 03:22:00,50.1,38.0,30.08,North,350,3.0,7.0,63,0.00,,CLR,0.00,VWS V14.01,2013-05-11 08:22:00,
2013-05-11 03:27:00,49.9,37.8,30.08,NNW,334,5.0,6.0,63,0.00,,CLR,0.00,VWS V14.01,2013-05-11 08:27:00,
2013-05-11 03:32:00,49.6,37.9,30.08,North,355,4.0,6.0,64,0.00,,CLR,0.00,VWS V14.01,2013-05-11 08:32:00,
2013-05-11 03:37:00,49.3,38.0,30.09,NNW,334,6.0,6.0,65,0.00,,CLR,0.00,VWS V14.01,2013-05-11 08:37:00,
2013-05-11 03:42:00,49.1,37.9,30.09,NNW,336,2.0,4.0,65,0.00,,CLR,0.00,VWS V14.01,2013-05-11 08:42:00,
2013-05-11 03:47:00,48.6,37.8,30.09,NNW,331,5.0,5.0,66,0.00,,CLR,0.00,VWS V14.01,2013-05-11 08:47:00,
2013-05-11 03:52:00,48.3,37.5,30.10,NNW,329,3.0,5.0,66,0.00,,CLR,0.00,VWS V14.01,2013-05-11 08:52:00,
2013-05-11 03:57:00,48.3,37.9,30.10,NNW,336,5.0,6.0,67,0.00,,CLR,0.00,VWS V14.01,2013-05-11 08:57:00,
2013-05-11 04:02:00,48.4,38.0,30.10,NNW,336,4.0,8.0,67,0.00,,CLR,0.00,VWS V14.01,2013-05-11 09:02:00,
2013-05-11 04:07:00,48.5,37.7,30.10,NNW,340,10.0,12.0,66,0.00,,CLR,0.00,VWS V14.01,2013-05-11 09:07:00,
2013-05-11 04:12:00,48.6,37.8,30.10,NNW,342,8.0,10.0,66,0.00,,CLR,0.00,VWS V14.01,2013-05-11 09:12:00,
2013-05-11 04:17:00,48.6,37.4,30.10,NW,306,7.0,12.0,65,0.00,,CLR,0.00,VWS V14.01,2013-05-11 09:17:00,
2013-05-11 04:22:00,48.7,37.5,30.11,NNW,329,7.0,11.0,65,0.00,,CLR,0.00,VWS V14.01,2013-05-11 09:22:00,
2013-05-11 04:27:00,48.7,37.5,30.11,NW,324,5.0,7.0,65,0.00,,CLR,0.00,VWS V14.01,2013-05-11 09:27:00,
2013-05-11 04:31:00,48.5,37.3,30.11,NW,319,5.0,8.0,65,0.00,,CLR,0.00,VWS V14.01,2013-05-11 09:31:00,
2013-05-11 04:36:00,48.1,36.9,30.11,NW,323,7.0,9.0,65,0.00,,CLR,0.00,VWS V14.01,2013-05-11 09:36:00,
2013-05-11 04:41:00,47.8,37.0,30.11,NNW,333,7.0,7.0,66,0.00,,CLR,0.00,VWS V14.01,2013-05-11 09:41:00,
2013-05-11 04:46:00,47.4,36.6,30.11,NW,321,7.0,8.0,66,0.00,,CLR,0.00,VWS V14.01,2013-05-11 09:46:00,
2013-05-11 04:51:00,47.0,36.6,30.12,NW,323,6.0,9.0,67,0.00,,CLR,0.00,VWS V14.01,2013-05-11 09:51:00,
2013-05-11 04:56:00,46.6,36.2,30.12,NW,324,7.0,7.0,67,0.00,,CLR,0.00,VWS V14.01,2013-05-11 09:56:00,
2013-05-11 05:01:00,46.4,36.4,30.12,NW,319,7.0,10.0,68,0.00,,CLR,0.00,VWS V14.01,2013-05-11 10:01:00,
2013-05-11 05:06:00,46.3,36.3,30.13,NNW,329,7.0,10.0,68,0.00,,CLR,0.00,VWS V14.01,2013-05-11 10:06:00,
2013-05-11 05:11:00,46.2,35.9,30.13,NW,319,9.0,9.0,67,0.00,,CLR,0.00,VWS V14.01,2013-05-11 10:11:00,
2013-05-11 05:16:00,46.1,35.8,30.13,NW,323,8.0,11.0,67,0.00,,CLR,0.00,VWS V14.01,2013-05-11 10:16:00,
2013-05-11 05:21:00,46.0,35.7,30.13,NW,317,9.0,9.0,67,0.00,,CLR,0.00,VWS V14.01,2013-05-11 10:21:00,
2013-05-11 05:26:00,45.8,35.1,30.13,NW,319,10.0,11.0,66,0.00,,CLR,0.00,VWS V14.01,2013-05-11 10:26:00,
2013-05-11 05:31:00,45.7,35.0,30.13,NNW,327,6.0,9.0,66,0.00,,CLR,0.00,VWS V14.01,2013-05-11 10:31:00,
2013-05-11 05:36:00,45.4,34.7,30.14,NNW,342,6.0,9.0,66,0.00,,CLR,0.00,VWS V14.01,2013-05-11 10:36:00,
2013-05-11 05:41:00,45.3,34.2,30.14,NNW,327,5.0,7.0,65,0.00,,CLR,0.00,VWS V14.01,2013-05-11 10:41:00,
2013-05-11 05:46:00,45.4,34.0,30.14,NNW,347,10.0,10.0,64,0.00,,CLR,0.00,VWS V14.01,2013-05-11 10:46:00,
2013-05-11 05:51:00,45.5,33.2,30.15,NNW,340,10.0,13.0,62,0.00,,CLR,0.00,VWS V14.01,2013-05-11 10:51:00,
2013-05-11 05:56:00,45.4,33.2,30.15,NNW,337,7.0,11.0,62,0.00,,CLR,0.00,VWS V14.01,2013-05-11 10:56:00,
2013-05-11 06:01:00,45.2,33.0,30.15,NW,325,9.0,12.0,62,0.00,,CLR,0.00,VWS V14.01,2013-05-11 11:01:00,
2013-05-11 06:06:00,45.0,32.8,30.16,NNW,329,6.0,8.0,62,0.00,,CLR,0.00,VWS V14.01,2013-05-11 11:06:00,
2013-05-11 06:11:00,44.5,32.7,30.16,NW,313,10.0,11.0,63,0.00,,CLR,0.00,VWS V14.01,2013-05-11 11:11:00,
2013-05-11 06:16:00,44.3,32.5,30.16,North,355,7.0,9.0,63,0.00,,CLR,0.00,VWS V14.01,2013-05-11 11:16:00,
2013-05-11 06:21:00,44.4,32.2,30.16,NNW,327,6.0,11.0,62,0.00,,CLR,0.00,VWS V14.01,2013-05-11 11:21:00,
2013-05-11 06:26:00,44.4,32.2,30.16,NW,323,6.0,11.0,62,0.00,,CLR,0.00,VWS V14.01,2013-05-11 11:26:00,
2013-05-11 06:31:00,44.2,32.4,30.16,NNW,341,6.0,10.0,63,0.00,,CLR,0.00,VWS V14.01,2013-05-11 11:31:00,
2013-05-11 06:36:00,43.9,32.5,30.17,NW,319,9.0,11.0,64,0.00,,CLR,0.00,VWS V14.01,2013-05-11 11:36:00,
2013-05-11 06:41:00,43.7,32.3,30.17,NNW,330,7.0,9.0,64,0.00,,CLR,0.00,VWS V14.01,2013-05-11 11:41:00,
2013-05-11 06:46:00,43.4,32.0,30.17,NW,324,6.0,10.0,64,0.00,,CLR,0.00,VWS V14.01,2013-05-11 11:46:00,
2013-05-11 06:51:00,43.4,32.0,30.18,NNW,335,8.0,9.0,64,0.00,,CLR,0.00,VWS V14.01,2013-05-11 11:51:00,
2013-05-11 06:56:00,43.5,32.2,30.18,NW,319,6.0,7.0,64,0.00,,CLR,0.00,VWS V14.01,2013-05-11 11:56:00,
2013-05-11 07:01:00,43.5,32.2,30.18,NNW,327,5.0,7.0,64,0.00,,CLR,0.00,VWS V14.01,2013-05-11 12:01:00,
2013-05-11 07:06:00,43.7,32.3,30.19,NNW,331,7.0,8.0,64,0.00,,CLR,0.00,VWS V14.01,2013-05-11 12:06:00,
2013-05-11 07:11:00,44.0,32.6,30.19,NW,319,5.0,7.0,64,0.00,,CLR,0.00,VWS V14.01,2013-05-11 12:11:00,
2013-05-11 07:16:00,44.3,32.5,30.19,NW,314,6.0,7.0,63,0.00,,CLR,0.00,VWS V14.01,2013-05-11 12:16:00,
2013-05-11 07:21:00,44.6,32.4,30.20,NNW,337,6.0,8.0,62,0.00,,CLR,0.00,VWS V14.01,2013-05-11 12:21:00,
2013-05-11 07:26:00,45.0,32.8,30.20,NW,321,3.0,7.0,62,0.00,,CLR,0.00,VWS V14.01,2013-05-11 12:26:00,
2013-05-11 07:31:00,45.4,32.8,30.20,NW,318,7.0,9.0,61,0.00,,CLR,0.00,VWS V14.01,2013-05-11 12:31:00,
2013-05-11 07:36:00,45.8,33.1,30.20,NW,320,4.0,6.0,61,0.00,,CLR,0.00,VWS V14.01,2013-05-11 12:36:00,
2013-05-11 07:41:00,46.2,33.1,30.20,NW,323,4.0,7.0,60,0.00,,CLR,0.00,VWS V14.01,2013-05-11 12:41:00,
2013-05-11 07:46:00,46.7,33.6,30.20,NW,323,2.0,6.0,60,0.00,,CLR,0.00,VWS V14.01,2013-05-11 12:46:00,
2013-05-11 07:51:00,47.1,33.5,30.20,NNW,332,6.0,10.0,59,0.00,,CLR,0.00,VWS V14.01,2013-05-11 12:51:00,
2013-05-11 07:56:00,47.4,33.4,30.20,NW,319,2.0,4.0,58,0.00,,CLR,0.00,VWS V14.01,2013-05-11 12:56:00,
2013-05-11 08:01:00,48.0,33.5,30.20,NW,318,6.0,7.0,57,0.00,,CLR,0.00,VWS V14.01,2013-05-11 13:01:00,
2013-05-11 08:06:00,48.5,33.5,30.20,NW,320,6.0,7.0,56,0.00,,CLR,0.00,VWS V14.01,2013-05-11 13:06:00,
2013-05-11 08:11:00,49.0,34.5,30.20,NW,316,3.0,6.0,57,0.00,,CLR,0.00,VWS V14.01,2013-05-11 13:11:00,
2013-05-11 08:16:00,49.4,33.9,30.20,NW,322,3.0,5.0,55,0.00,,CLR,0.00,VWS V14.01,2013-05-11 13:16:00,
2013-05-11 08:21:00,49.9,34.8,30.20,NW,319,4.0,6.0,56,0.00,,CLR,0.00,VWS V14.01,2013-05-11 13:21:00,
2013-05-11 08:26:00,50.5,33.5,30.20,NW,318,4.0,6.0,52,0.00,,CLR,0.00,VWS V14.01,2013-05-11 13:26:00,
2013-05-11 08:31:00,50.8,33.3,30.20,NW,324,6.0,6.0,51,0.00,,CLR,0.00,VWS V14.01,2013-05-11 13:31:00,
2013-05-11 08:36:00,51.2,34.2,30.20,NW,316,5.0,9.0,52,0.00,,CLR,0.00,VWS V14.01,2013-05-11 13:36:00,
2013-05-11 08:41:00,51.5,33.0,30.20,NNW,327,4.0,10.0,49,0.00,,CLR,0.00,VWS V14.01,2013-05-11 13:41:00,
2013-05-11 08:46:00,51.7,32.7,30.20,NW,309,9.0,12.0,48,0.00,,CLR,0.00,VWS V14.01,2013-05-11 13:46:00,
2013-05-11 08:51:00,51.9,32.3,30.20,NNW,345,10.0,15.0,47,0.00,,CLR,0.00,VWS V14.01,2013-05-11 13:51:00,
2013-05-11 08:56:00,51.8,31.7,30.20,NNW,332,10.0,14.0,46,0.00,,CLR,0.00,VWS V14.01,2013-05-11 13:56:00,
2013-05-11 09:01:00,52.0,31.9,30.20,NNW,327,7.0,10.0,46,0.00,,CLR,0.00,VWS V14.01,2013-05-11 14:01:00,
2013-05-11 09:06:00,52.0,30.8,30.22,NNW,348,9.0,12.0,44,0.00,,CLR,0.00,VWS V14.01,2013-05-11 14:06:00,
2013-05-11 09:11:00,51.8,30.6,30.22,NNW,327,17.0,17.0,44,0.00,,CLR,0.00,VWS V14.01,2013-05-11 14:11:00,
2013-05-11 09:16:00,52.1,31.4,30.22,NW,315,6.0,15.0,45,0.00,,CLR,0.00,VWS V14.01,2013-05-11 14:16:00,
2013-05-11 09:21:00,52.2,30.4,30.24,NNW,338,10.0,18.0,43,0.00,,CLR,0.00,VWS V14.01,2013-05-11 14:21:00,
2013-05-11 09:26:00,52.1,31.4,30.24,NW,325,9.0,10.0,45,0.00,,CLR,0.00,VWS V14.01,2013-05-11 14:26:00,
2013-05-11 09:31:00,51.8,30.0,30.24,NW,323,8.0,13.0,43,0.00,,CLR,0.00,VWS V14.01,2013-05-11 14:31:00,
2013-05-11 09:36:00,51.6,30.4,30.25,North,355,9.0,13.0,44,0.00,,CLR,0.00,VWS V14.01,2013-05-11 14:36:00,
2013-05-11 09:41:00,51.5,30.3,30.25,North,350,13.0,14.0,44,0.00,,CLR,0.00,VWS V14.01,2013-05-11 14:41:00,
2013-05-11 09:46:00,51.7,30.5,30.25,NNW,342,11.0,18.0,44,0.00,,CLR,0.00,VWS V14.01,2013-05-11 14:46:00,
2013-05-11 09:51:00,51.8,30.0,30.25,NW,312,15.0,17.0,43,0.00,,CLR,0.00,VWS V14.01,2013-05-11 14:51:00,
2013-05-11 09:56:00,52.1,30.9,30.25,NW,313,17.0,17.0,44,0.00,,CLR,0.00,VWS V14.01,2013-05-11 14:56:00,
2013-05-11 10:01:00,52.3,31.0,30.25,NNW,347,11.0,11.0,44,0.00,,CLR,0.00,VWS V14.01,2013-05-11 15:01:00,
2013-05-11 10:06:00,52.7,30.9,30.25,NNW,336,15.0,17.0,43,0.00,,CLR,0.00,VWS V14.01,2013-05-11 15:06:00,
2013-05-11 10:11:00,52.4,31.1,30.25,NW,321,13.0,13.0,44,0.00,,CLR,0.00,VWS V14.01,2013-05-11 15:11:00,
2013-05-11 10:16:00,52.5,31.8,30.25,NW,307,12.0,15.0,45,0.00,,CLR,0.00,VWS V14.01,2013-05-11 15:16:00,
2013-05-11 10:21:00,52.7,32.0,30.24,North,5,13.0,16.0,45,0.00,,CLR,0.00,VWS V14.01,2013-05-11 15:21:00,
2013-05-11 10:26:00,52.8,30.9,30.24,NNW,337,15.0,20.0,43,0.00,,CLR,0.00,VWS V14.01,2013-05-11 15:26:00,
2013-05-11 10:31:00,53.2,31.3,30.24,North,355,12.0,13.0,43,0.00,,CLR,0.00,VWS V14.01,2013-05-11 15:31:00,
2013-05-11 10:36:00,53.4,31.5,30.24,NNE,15,22.0,22.0,43,0.00,,CLR,0.00,VWS V14.01,2013-05-11 15:36:00,
2013-05-11 10:41:00,52.7,29.7,30.24,NNW,333,13.0,19.0,41,0.00,,CLR,0.00,VWS V14.01,2013-05-11 15:41:00,
2013-05-11 10:46:00,52.7,30.3,30.24,NNW,337,9.0,15.0,42,0.00,,CLR,0.00,VWS V14.01,2013-05-11 15:46:00,
2013-05-11 10:51:00,52.9,32.2,30.24,NW,315,9.0,12.0,45,0.00,,CLR,0.00,VWS V14.01,2013-05-11 15:51:00,
2013-05-11 10:56:00,52.9,30.5,30.24,North,349,14.0,21.0,42,0.00,,CLR,0.00,VWS V14.01,2013-05-11 15:56:00,
2013-05-11 11:01:00,52.6,30.8,30.24,North,355,13.0,14.0,43,0.00,,CLR,0.00,VWS V14.01,2013-05-11 16:01:00,
2013-05-11 11:06:00,53.0,31.1,30.24,North,5,14.0,14.0,43,0.00,,CLR,0.00,VWS V14.01,2013-05-11 16:06:00,
2013-05-11 11:11:00,52.7,30.3,30.24,NNW,335,15.0,18.0,42,0.00,,CLR,0.00,VWS V14.01,2013-05-11 16:11:00,
2013-05-11 11:16:00,53.2,31.3,30.24,NNW,342,14.0,14.0,43,0.00,,CLR,0.00,VWS V14.01,2013-05-11 16:16:00,
2013-05-11 11:21:00,53.8,32.4,30.24,North,350,14.0,14.0,44,0.00,,CLR,0.00,VWS V14.01,2013-05-11 16:21:00,
2013-05-11 11:26:00,53.9,32.5,30.24,NNW,331,6.0,10.0,44,0.00,,CLR,0.00,VWS V14.01,2013-05-11 16:26:00,
2013-05-11 11:31:00,54.4,33.0,30.24,North,355,18.0,19.0,44,0.00,,CLR,0.00,VWS V14.01,2013-05-11 16:31:00,
2013-05-11 11:36:00,53.7,31.2,30.24,NW,311,13.0,16.0,42,0.00,,CLR,0.00,VWS V14.01,2013-05-11 16:36:00,
2013-05-11 11:41:00,54.0,32.0,30.24,North,350,19.0,20.0,43,0.00,,CLR,0.00,VWS V14.01,2013-05-11 16:41:00,
2013-05-11 11:46:00,54.9,32.8,30.24,North,355,16.0,16.0,43,0.00,,CLR,0.00,VWS V14.01,2013-05-11 16:46:00,
2013-05-11 11:51:00,54.7,32.1,30.24,NNW,332,16.0,17.0,42,0.00,,CLR,0.00,VWS V14.01,2013-05-11 16:51:00,
2013-05-11 11:56:00,54.6,31.4,30.24,North,5,15.0,17.0,41,0.00,,CLR,0.00,VWS V14.01,2013-05-11 16:56:00,
2013-05-11 12:01:00,54.2,29.8,30.24,NW,321,11.0,17.0,39,0.00,,CLR,0.00,VWS V14.01,2013-05-11 17:01:00,
2013-05-11 12:06:00,54.8,31.0,30.24,NNW,331,9.0,19.0,40,0.00,,CLR,0.00,VWS V14.01,2013-05-11 17:06:00,
2013-05-11 12:11:00,55.7,31.8,30.24,NW,315,11.0,13.0,40,0.00,,CLR,0.00,VWS V14.01,2013-05-11 17:11:00,
2013-05-11 12:16:00,56.0,30.1,30.24,North,355,13.0,17.0,37,0.00,,CLR,0.00,VWS V14.01,2013-05-11 17:16:00,
2013-05-11 12:21:00,55.4,28.9,30.24,NNW,338,12.0,14.0,36,0.00,,CLR,0.00,VWS V14.01,2013-05-11 17:21:00,
2013-05-11 12:26:00,56.0,30.1,30.24,NNW,344,17.0,19.0,37,0.00,,CLR,0.00,VWS V14.01,2013-05-11 17:26:00,
2013-05-11 12:31:00,55.5,30.3,30.24,NNW,333,10.0,15.0,38,0.00,,CLR,0.00,VWS V14.01,2013-05-11 17:31:00,
2013-05-11 12:36:00,55.0,28.6,30.24,NNW,337,11.0,15.0,36,0.00,,CLR,0.00,VWS V14.01,2013-05-11 17:36:00,
2013-05-11 12:41:00,55.0,28.6,30.24,NNW,348,10.0,13.0,36,0.00,,CLR,0.00,VWS V14.01,2013-05-11 17:41:00,
2013-05-11 12:46:00,56.0,29.4,30.24,NW,323,14.0,16.0,36,0.00,,CLR,0.00,VWS V14.01,2013-05-11 17:46:00,
2013-05-11 12:51:00,57.1,30.4,30.24,NNW,329,14.0,19.0,36,0.00,,CLR,0.00,VWS V14.01,2013-05-11 17:51:00,
2013-05-11 12:56:00,56.5,29.9,30.24,NW,323,12.0,12.0,36,0.00,,CLR,0.00,VWS V14.01,2013-05-11 17:56:00,
2013-05-11 13:01:00,56.8,29.5,30.24,NW,323,10.0,22.0,35,0.00,,CLR,0.00,VWS V14.01,2013-05-11 18:01:00,
2013-05-11 13:06:00,56.5,27.0,30.24,NW,316,13.0,19.0,32,0.00,,CLR,0.00,VWS V14.01,2013-05-11 18:06:00,
2013-05-11 13:11:00,56.4,26.9,30.24,NNW,334,13.0,16.0,32,0.00,,CLR,0.00,VWS V14.01,2013-05-11 18:11:00,
2013-05-11 13:16:00,55.7,24.8,30.24,North,350,16.0,20.0,30,0.00,,CLR,0.00,VWS V14.01,2013-05-11 18:16:00,
2013-05-11 13:21:00,56.4,26.2,30.24,North,355,16.0,21.0,31,0.00,,CLR,0.00,VWS V14.01,2013-05-11 18:21:00,
2013-05-11 13:26:00,56.3,25.3,30.24,NNW,327,16.0,16.0,30,0.00,,CLR,0.00,VWS V14.01,2013-05-11 18:26:00,
2013-05-11 13:31:00,56.8,26.5,30.24,NW,323,14.0,16.0,31,0.00,,CLR,0.00,VWS V14.01,2013-05-11 18:31:00,
2013-05-11 13:36:00,56.8,24.1,30.23,NW,309,10.0,16.0,28,0.00,,CLR,0.00,VWS V14.01,2013-05-11 18:36:00,
2013-05-11 13:41:00,57.3,24.5,30.23,NW,323,14.0,16.0,28,0.00,,CLR,0.00,VWS V14.01,2013-05-11 18:41:00,
2013-05-11 13:46:00,56.9,23.3,30.23,NNW,340,12.0,18.0,27,0.00,,CLR,0.00,VWS V14.01,2013-05-11 18:46:00,
2013-05-11 13:51:00,56.6,23.9,30.24,NNW,333,9.0,12.0,28,0.00,,CLR,0.00,VWS V14.01,2013-05-11 18:51:00,
2013-05-11 13:56:00,57.3,23.6,30.24,NNE,18,17.0,17.0,27,0.00,,CLR,0.00,VWS V14.01,2013-05-11 18:56:00,
2013-05-11 14:01:00,58.2,26.1,30.24,NW,307,6.0,6.0,29,0.00,,CLR,0.00,VWS V14.01,2013-05-11 19:01:00,
2013-05-11 14:06:00,58.5,23.8,30.22,North,360,11.0,18.0,26,0.00,,CLR,0.00,VWS V14.01,2013-05-11 19:06:00,
2013-05-11 14:11:00,57.1,23.5,30.22,North,5,20.0,27.0,27,0.00,,CLR,0.00,VWS V14.01,2013-05-11 19:11:00,
2013-05-11 14:16:00,56.9,23.3,30.22,North,350,13.0,17.0,27,0.00,,CLR,0.00,VWS V14.01,2013-05-11 19:16:00,
2013-05-11 14:21:00,56.9,24.1,30.24,NW,319,4.0,14.0,28,0.00,,CLR,0.00,VWS V14.01,2013-05-11 19:21:00,
2013-05-11 14:26:00,58.1,25.2,30.24,North,360,5.0,11.0,28,0.00,,CLR,0.00,VWS V14.01,2013-05-11 19:26:00,
2013-05-11 14:31:00,58.1,24.3,30.24,NW,309,6.0,16.0,27,0.00,,CLR,0.00,VWS V14.01,2013-05-11 19:31:00,
2013-05-11 14:36:00,58.2,24.4,30.23,NNW,333,11.0,16.0,27,0.00,,CLR,0.00,VWS V14.01,2013-05-11 19:36:00,
2013-05-11 14:41:00,57.6,23.0,30.23,NNW,327,14.0,15.0,26,0.00,,CLR,0.00,VWS V14.01,2013-05-11 19:41:00,
2013-05-11 14:46:00,57.5,22.9,30.23,NNW,329,10.0,12.0,26,0.00,,CLR,0.00,VWS V14.01,2013-05-11 19:46:00,
2013-05-11 14:51:00,58.1,22.5,30.24,NNW,336,14.0,27.0,25,0.00,,CLR,0.00,VWS V14.01,2013-05-11 19:51:00,
2013-05-11 14:56:00,57.4,22.8,30.24,NNW,331,20.0,20.0,26,0.00,,CLR,0.00,VWS V14.01,2013-05-11 19:56:00,
2013-05-11 15:01:00,57.6,23.9,30.24,NW,326,6.0,7.0,27,0.00,,CLR,0.00,VWS V14.01,2013-05-11 20:01:00,
2013-05-11 15:06:00,57.3,21.8,30.23,North,355,19.0,19.0,25,0.00,,CLR,0.00,VWS V14.01,2013-05-11 20:06:00,
2013-05-11 15:11:00,57.1,24.3,30.23,NW,324,10.0,12.0,28,0.00,,CLR,0.00,VWS V14.01,2013-05-11 20:11:00,
2013-05-11 15:16:00,57.5,22.9,30.23,NNW,345,8.0,14.0,26,0.00,,CLR,0.00,VWS V14.01,2013-05-11 20:16:00,
2013-05-11 15:21:00,58.2,25.3,30.22,NW,321,13.0,14.0,28,0.00,,CLR,0.00,VWS V14.01,2013-05-11 20:21:00,
2013-05-11 15:26:00,57.8,23.2,30.22,NNE,14,11.0,12.0,26,0.00,,CLR,0.00,VWS V14.01,2013-05-11 20:26:00,
2013-05-11 15:31:00,58.5,23.8,30.22,NNW,329,12.0,13.0,26,0.00,,CLR,0.00,VWS V14.01,2013-05-11 20:31:00,
2013-05-11 15:36:00,58.5,23.8,30.23,North,355,9.0,16.0,26,0.00,,CLR,0.00,VWS V14.01,2013-05-11 20:36:00,
2013-05-11 15:41:00,58.2,22.6,30.23,NNW,338,14.0,14.0,25,0.00,,CLR,0.00,VWS V14.01,2013-05-11 20:41:00,
2013-05-11 15:46:00,58.4,23.7,30.23,NW,309,8.0,12.0,26,0.00,,CLR,0.00,VWS V14.01,2013-05-11 20:46:00,
2013-05-11 15:51:00,58.6,23.8,30.23,North,355,13.0,16.0,26,0.00,,CLR,0.00,VWS V14.01,2013-05-11 20:51:00,
2013-05-11 15:56:00,58.6,23.8,30.23,North,355,13.0,16.0,26,0.00,,CLR,0.00,VWS V14.01,2013-05-11 20:56:00,
2013-05-11 16:01:00,58.6,23.8,30.23,North,355,13.0,16.0,26,0.00,,CLR,0.00,VWS V14.01,2013-05-11 21:01:00,
2013-05-11 16:06:00,58.6,23.8,30.23,North,355,13.0,16.0,26,0.00,,CLR,0.00,VWS V14.01,2013-05-11 21:06:00,
2013-05-11 16:11:00,58.6,23.8,30.23,North,355,13.0,16.0,26,0.00,,CLR,0.00,VWS V14.01,2013-05-11 21:11:00,
2013-05-11 16:16:00,58.6,23.8,30.23,North,355,13.0,16.0,26,0.00,,CLR,0.00,VWS V14.01,2013-05-11 21:16:00,
2013-05-11 16:21:00,58.6,23.8,30.23,North,355,13.0,16.0,26,0.00,,CLR,0.00,VWS V14.01,2013-05-11 21:21:00,
2013-05-11 16:26:00,58.6,23.8,30.23,North,355,13.0,16.0,26,0.00,,CLR,0.00,VWS V14.01,2013-05-11 21:26:00,
2013-05-11 16:31:00,58.6,23.8,30.23,North,355,13.0,16.0,26,0.00,,CLR,0.00,VWS V14.01,2013-05-11 21:31:00,
2013-05-11 16:36:00,58.6,23.8,30.23,North,355,13.0,16.0,26,0.00,,CLR,0.00,VWS V14.01,2013-05-11 21:36:00,
2013-05-11 16:41:00,58.6,23.8,30.23,North,355,13.0,16.0,26,0.00,,CLR,0.00,VWS V14.01,2013-05-11 21:41:00,
2013-05-11 16:46:00,58.6,23.8,30.23,North,355,13.0,16.0,26,0.00,,CLR,0.00,VWS V14.01,2013-05-11 21:46:00,
2013-05-11 16:51:00,58.6,23.8,30.23,North,355,13.0,16.0,26,0.00,,CLR,0.00,VWS V14.01,2013-05-11 21:51:00,
2013-05-11 16:56:00,58.6,23.8,30.23,North,355,13.0,16.0,26,0.00,,CLR,0.00,VWS V14.01,2013-05-11 21:56:00,
2013-05-11 17:01:00,58.6,23.8,30.23,North,355,13.0,16.0,26,0.00,,CLR,0.00,VWS V14.01,2013-05-11 22:01:00,
2013-05-11 17:06:00,58.6,23.8,30.23,North,355,13.0,16.0,26,0.00,,CLR,0.00,VWS V14.01,2013-05-11 22:06:00,
2013-05-11 17:11:00,58.6,23.8,30.23,North,355,13.0,16.0,26,0.00,,CLR,0.00,VWS V14.01,2013-05-11 22:11:00,
2013-05-11 17:16:00,58.6,23.8,30.23,North,355,13.0,16.0,26,0.00,,CLR,0.00,VWS V14.01,2013-05-11 22:16:00,
2013-05-11 17:21:00,58.6,23.8,30.23,North,355,13.0,16.0,26,0.00,,CLR,0.00,VWS V14.01,2013-05-11 22:21:00,
2013-05-11 17:26:00,58.6,23.8,30.23,North,355,13.0,16.0,26,0.00,,CLR,0.00,VWS V14.01,2013-05-11 22:26:00,
2013-05-11 17:31:00,58.6,23.8,30.23,North,355,13.0,16.0,26,0.00,,CLR,0.00,VWS V14.01,2013-05-11 22:31:00,
2013-05-11 17:36:00,58.6,23.8,30.23,North,355,13.0,16.0,26,0.00,,CLR,0.00,VWS V14.01,2013-05-11 22:36:00,
2013-05-11 17:41:00,58.6,23.8,30.23,North,355,13.0,16.0,26,0.00,,CLR,0.00,VWS V14.01,2013-05-11 22:41:00,
2013-05-11 17:46:00,58.6,23.8,30.23,North,355,13.0,16.0,26,0.00,,CLR,0.00,VWS V14.01,2013-05-11 22:46:00,
2013-05-11 17:51:00,58.6,23.8,30.23,North,355,13.0,16.0,26,0.00,,CLR,0.00,VWS V14.01,2013-05-11 22:51:00,
2013-05-11 17:56:00,58.6,23.8,30.23,North,355,13.0,16.0,26,0.00,,CLR,0.00,VWS V14.01,2013-05-11 22:56:00,
2013-05-11 18:01:00,58.6,23.8,30.23,North,355,13.0,16.0,26,0.00,,CLR,0.00,VWS V14.01,2013-05-11 23:01:00,
2013-05-11 18:06:00,58.6,23.8,30.23,North,355,13.0,16.0,26,0.00,,CLR,0.00,VWS V14.01,2013-05-11 23:06:00,
2013-05-11 18:11:00,58.6,23.8,30.23,North,355,13.0,16.0,26,0.00,,CLR,0.00,VWS V14.01,2013-05-11 23:11:00,
2013-05-11 18:16:00,58.6,23.8,30.23,North,355,13.0,16.0,26,0.00,,CLR,0.00,VWS V14.01,2013-05-11 23:16:00,
2013-05-11 18:21:00,58.6,23.8,30.23,North,355,13.0,16.0,26,0.00,,CLR,0.00,VWS V14.01,2013-05-11 23:21:00,
2013-05-11 18:26:00,58.6,23.8,30.23,North,355,13.0,16.0,26,0.00,,CLR,0.00,VWS V14.01,2013-05-11 23:26:00,
2013-05-11 18:31:00,58.6,23.8,30.23,North,355,13.0,16.0,26,0.00,,CLR,0.00,VWS V14.01,2013-05-11 23:31:00,
2013-05-11 18:36:00,58.6,23.8,30.23,North,355,13.0,16.0,26,0.00,,CLR,0.00,VWS V14.01,2013-05-11 23:36:00,
2013-05-11 18:41:00,58.6,23.8,30.23,North,355,13.0,16.0,26,0.00,,CLR,0.00,VWS V14.01,2013-05-11 23:41:00,
2013-05-11 18:46:00,58.6,23.8,30.23,North,355,13.0,16.0,26,0.00,,CLR,0.00,VWS V14.01,2013-05-11 23:46:00,
2013-05-11 18:51:00,58.6,23.8,30.23,North,355,13.0,16.0,26,0.00,,CLR,0.00,VWS V14.01,2013-05-11 23:51:00,
2013-05-11 18:56:00,58.6,23.8,30.23,North,355,13.0,16.0,26,0.00,,CLR,0.00,VWS V14.01,2013-05-11 23:56:00,
2013-05-11 19:01:00,58.6,23.8,30.23,North,355,13.0,16.0,26,0.00,,CLR,0.00,VWS V14.01,2013-05-12 00:01:00,
2013-05-11 19:06:00,58.6,23.8,30.23,North,355,13.0,16.0,26,0.00,,CLR,0.00,VWS V14.01,2013-05-12 00:06:00,
2013-05-11 19:11:00,58.6,23.8,30.23,North,355,13.0,16.0,26,0.00,,CLR,0.00,VWS V14.01,2013-05-12 00:11:00,
2013-05-11 19:16:00,58.6,23.8,30.23,North,355,13.0,16.0,26,0.00,,CLR,0.00,VWS V14.01,2013-05-12 00:16:00,
2013-05-11 19:21:00,58.6,23.8,30.23,North,355,13.0,16.0,26,0.00,,CLR,0.00,VWS V14.01,2013-05-12 00:21:00,
2013-05-11 19:26:00,58.6,23.8,30.23,North,355,13.0,16.0,26,0.00,,CLR,0.00,VWS V14.01,2013-05-12 00:26:00,
2013-05-11 19:31:00,58.6,23.8,30.23,North,355,13.0,16.0,26,0.00,,CLR,0.00,VWS V14.01,2013-05-12 00:31:00,
2013-05-11 19:36:00,58.6,23.8,30.23,North,355,13.0,16.0,26,0.00,,CLR,0.00,VWS V14.01,2013-05-12 00:36:00,
2013-05-11 19:41:00,58.6,23.8,30.23,North,355,13.0,16.0,26,0.00,,CLR,0.00,VWS V14.01,2013-05-12 00:41:00,
2013-05-11 19:46:00,58.6,23.8,30.23,North,355,13.0,16.0,26,0.00,,CLR,0.00,VWS V14.01,2013-05-12 00:46:00,
2013-05-11 19:51:00,58.6,23.8,30.23,North,355,13.0,16.0,26,0.00,,CLR,0.00,VWS V14.01,2013-05-12 00:51:00,
2013-05-11 19:56:00,58.6,23.8,30.23,North,355,13.0,16.0,26,0.00,,CLR,0.00,VWS V14.01,2013-05-12 00:56:00,
2013-05-11 20:01:00,58.6,23.8,30.23,North,355,13.0,16.0,26,0.00,,CLR,0.00,VWS V14.01,2013-05-12 01:01:00,
2013-05-11 20:06:00,58.6,23.8,30.23,North,355,13.0,16.0,26,0.00,,CLR,0.00,VWS V14.01,2013-05-12 01:06:00,
2013-05-11 20:11:00,58.6,23.8,30.23,North,355,13.0,16.0,26,0.00,,CLR,0.00,VWS V14.01,2013-05-12 01:11:00,
2013-05-11 20:16:00,58.6,23.8,30.23,North,355,13.0,16.0,26,0.00,,CLR,0.00,VWS V14.01,2013-05-12 01:16:00,
2013-05-11 20:21:00,58.6,23.8,30.23,North,355,13.0,16.0,26,0.00,,CLR,0.00,VWS V14.01,2013-05-12 01:21:00,
2013-05-11 20:26:00,58.6,23.8,30.23,North,355,13.0,16.0,26,0.00,,CLR,0.00,VWS V14.01,2013-05-12 01:26:00,
2013-05-11 20:31:00,58.6,23.8,30.23,North,355,13.0,16.0,26,0.00,,CLR,0.00,VWS V14.01,2013-05-12 01:31:00,
2013-05-11 20:36:00,58.6,23.8,30.23,North,355,13.0,16.0,26,0.00,,CLR,0.00,VWS V14.01,2013-05-12 01:36:00,
2013-05-11 20:41:00,58.6,23.8,30.23,North,355,13.0,16.0,26,0.00,,CLR,0.00,VWS V14.01,2013-05-12 01:41:00,
2013-05-11 20:46:00,58.6,23.8,30.23,North,355,13.0,16.0,26,0.00,,CLR,0.00,VWS V14.01,2013-05-12 01:46:00,
2013-05-11 20:51:00,58.6,23.8,30.23,North,355,13.0,16.0,26,0.00,,CLR,0.00,VWS V14.01,2013-05-12 01:51:00,
2013-05-11 20:56:00,58.6,23.8,30.23,North,355,13.0,16.0,26,0.00,,CLR,0.00,VWS V14.01,2013-05-12 01:56:00,
2013-05-11 21:01:00,58.6,23.8,30.23,North,355,13.0,16.0,26,0.00,,CLR,0.00,VWS V14.01,2013-05-12 02:01:00,
2013-05-11 21:06:00,58.6,23.8,30.23,North,355,13.0,16.0,26,0.00,,CLR,0.00,VWS V14.01,2013-05-12 02:06:00,
2013-05-11 21:11:00,58.6,23.8,30.23,North,355,13.0,16.0,26,0.00,,CLR,0.00,VWS V14.01,2013-05-12 02:11:00,
2013-05-11 21:16:00,58.6,23.8,30.23,North,355,13.0,16.0,26,0.00,,CLR,0.00,VWS V14.01,2013-05-12 02:16:00,
2013-05-11 21:21:00,58.6,23.8,30.23,North,355,13.0,16.0,26,0.00,,CLR,0.00,VWS V14.01,2013-05-12 02:21:00,
2013-05-11 21:26:00,58.6,23.8,30.23,North,355,13.0,16.0,26,0.00,,CLR,0.00,VWS V14.01,2013-05-12 02:26:00,
2013-05-11 21:31:00,58.6,23.8,30.23,North,355,13.0,16.0,26,0.00,,CLR,0.00,VWS V14.01,2013-05-12 02:31:00,
2013-05-11 21:36:00,58.6,23.8,30.23,North,355,13.0,16.0,26,0.00,,CLR,0.00,VWS V14.01,2013-05-12 02:36:00,
2013-05-11 21:41:00,58.6,23.8,30.23,North,355,13.0,16.0,26,0.00,,CLR,0.00,VWS V14.01,2013-05-12 02:41:00,
2013-05-11 21:46:00,58.6,23.8,30.23,North,355,13.0,16.0,26,0.00,,CLR,0.00,VWS V14.01,2013-05-12 02:46:00,
2013-05-11 21:51:00,58.6,23.8,30.23,North,355,13.0,16.0,26,0.00,,CLR,0.00,VWS V14.01,2013-05-12 02:51:00,
2013-05-11 21:56:00,58.6,23.8,30.23,North,355,13.0,16.0,26,0.00,,CLR,0.00,VWS V14.01,2013-05-12 02:56:00,
2013-05-11 22:01:00,58.6,23.8,30.23,North,355,13.0,16.0,26,0.00,,CLR,0.00,VWS V14.01,2013-05-12 03:01:00,
2013-05-11 22:06:00,58.6,23.8,30.23,North,355,13.0,16.0,26,0.00,,CLR,0.00,VWS V14.01,2013-05-12 03:06:00,
2013-05-11 22:11:00,58.6,23.8,30.23,North,355,13.0,16.0,26,0.00,,CLR,0.00,VWS V14.01,2013-05-12 03:11:00,
2013-05-11 22:16:00,58.6,23.8,30.23,North,355,13.0,16.0,26,0.00,,CLR,0.00,VWS V14.01,2013-05-12 03:16:00,
2013-05-11 22:21:00,58.6,23.8,30.23,North,355,13.0,16.0,26,0.00,,CLR,0.00,VWS V14.01,2013-05-12 03:21:00,
2013-05-11 22:26:00,58.6,23.8,30.23,North,355,13.0,16.0,26,0.00,,CLR,0.00,VWS V14.01,2013-05-12 03:26:00,
2013-05-11 22:31:00,58.6,23.8,30.23,North,355,13.0,16.0,26,0.00,,CLR,0.00,VWS V14.01,2013-05-12 03:31:00,
2013-05-11 22:36:00,58.6,23.8,30.23,North,355,13.0,16.0,26,0.00,,CLR,0.00,VWS V14.01,2013-05-12 03:36:00,
2013-05-11 22:41:00,58.6,23.8,30.23,North,355,13.0,16.0,26,0.00,,CLR,0.00,VWS V14.01,2013-05-12 03:41:00,
2013-05-11 22:46:00,58.6,23.8,30.23,North,355,13.0,16.0,26,0.00,,CLR,0.00,VWS V14.01,2013-05-12 03:46:00,
2013-05-11 22:51:00,58.6,23.8,30.23,North,355,13.0,16.0,26,0.00,,CLR,0.00,VWS V14.01,2013-05-12 03:51:00,
2013-05-11 22:56:00,58.6,23.8,30.23,North,355,13.0,16.0,26,0.00,,CLR,0.00,VWS V14.01,2013-05-12 03:56:00,
2013-05-11 23:01:00,58.6,23.8,30.23,North,355,13.0,16.0,26,0.00,,CLR,0.00,VWS V14.01,2013-05-12 04:01:00,
2013-05-11 23:06:00,58.6,23.8,30.23,North,355,13.0,16.0,26,0.00,,CLR,0.00,VWS V14.01,2013-05-12 04:06:00,
2013-05-11 23:11:00,58.6,23.8,30.23,North,355,13.0,16.0,26,0.00,,CLR,0.00,VWS V14.01,2013-05-12 04:11:00,
2013-05-11 23:16:00,58.6,23.8,30.23,North,355,13.0,16.0,26,0.00,,CLR,0.00,VWS V14.01,2013-05-12 04:16:00,
2013-05-11 23:21:00,58.6,23.8,30.23,North,355,13.0,16.0,26,0.00,,CLR,0.00,VWS V14.01,2013-05-12 04:21:00,
2013-05-11 23:26:00,58.6,23.8,30.23,North,355,13.0,16.0,26,0.00,,CLR,0.00,VWS V14.01,2013-05-12 04:26:00,
2013-05-11 23:31:00,58.6,23.8,30.23,North,355,13.0,16.0,26,0.00,,CLR,0.00,VWS V14.01,2013-05-12 04:31:00,
2013-05-11 23:36:00,58.6,23.8,30.23,North,355,13.0,16.0,26,0.00,,CLR,0.00,VWS V14.01,2013-05-12 04:36:00,
2013-05-11 23:41:00,58.6,23.8,30.23,North,355,13.0,16.0,26,0.00,,CLR,0.00,VWS V14.01,2013-05-12 04:41:00,
2013-05-11 23:46:00,58.6,23.8,30.23,North,355,13.0,16.0,26,0.00,,CLR,0.00,VWS V14.01,2013-05-12 04:46:00,
2013-05-11 23:51:00,58.6,23.8,30.23,North,355,13.0,16.0,26,0.00,,CLR,0.00,VWS V14.01,2013-05-12 04:51:00,
2013-05-11 23:56:00,58.6,23.8,30.23,North,355,13.0,16.0,26,0.00,,CLR,0.00,VWS V14.01,2013-05-12 04:56:00,